Location: Arborea
(39.7744°N, 8.5819°E)
Time: 02:27:26
(UTC+00:00)

USA 229 - Pass Details

Date: 30 May 2022
Orbit: 938 x 1274 km, 63.4° (Epoch: 24 May)

Event Time Altitude Azimuth Distance (km) Brightness Sun altitude
Rises 19:27:20 0° 322° (NW) 3,852 8.4 -7.4°
Maximum altitude 19:34:23 10° 11° (N) 3,023 6.4 -8.5°
Drops below altitude 10° 19:34:29 10° 12° (NNE) 3,025 6.4 -8.5°
Sets 19:41:46 0° 59° (ENE) 4,106 6.6 -9.6°
